Location: *
(47.6569°N, 7.4256°E)
Time: 00:13:17
(UTC+00:00)

Lacrosse 5 - Pass Details

Date: 14 December 2019
Orbit: 717 x 722 km, 57.0° (Epoch: 10 January)

Event Time Altitude Azimuth Distance (km) Brightness Sun altitude
Rises 19:13:42 0° 242° (WSW) 3,116 5.9 -35.0°
Reaches altitude 10° 19:16:06 10° 245° (WSW) 2,198 5.0 -35.5°
Enters shadow 19:18:11 25° 251° (WSW) 1,439 3.9 -35.8°
